Total_Precipitation_Accumulation
0.00 0.00 0.00 0.00 0.00 0.00 0.00 0.00 0.00 0.00 0.00 0.00 0.00 0.00 0.00 0.00 0.00 0.11 0.29 0.25 0.32 0.37 0.21 0.13 0.03 0.00 0.00 0.00 0.00 0.00 0.01 0.00 0.00 0.00 0.00 0.00 0.00 0.00 0.00 0.00 0.00 0.00 0.00 0.00
0.00 0.00 0.00 0.00 0.00 0.00 0.00 0.00 0.00 0.00 0.00 0.00 0.00 0.01 0.01 0.00 0.00 0.03 0.10 0.42 0.72 0.73 0.43 0.19 0.09 0.01 0.00 0.00 0.00 0.00 0.00 0.00 0.00 0.00 0.00 0.00 0.01 0.00 0.00 0.00 0.00 0.00 0.00 0.00
0.00 0.00 0.00 0.00 0.00 0.00 0.00 0.00 0.00 0.00 0.00 0.00 0.00 0.29 0.21 0.04 0.04 0.09 0.09 0.07 0.12 0.34 0.97 0.30 0.04 0.04 0.04 0.01 0.00 0.01 0.00 0.00 0.00 0.00 0.00 0.00 0.04 0.06 0.08 0.03 0.01 0.00 0.00 0.00
0.00 0.00 0.00 0.00 0.00 0.00 0.00 0.00 0.00 0.00 0.00 0.00 0.00 0.16 0.19 0.13 0.12 0.15 0.10 0.06 0.08 0.03 0.19 0.31 0.05 0.06 0.04 0.08 0.08 0.09 0.10 0.05 0.00 0.00 0.00 0.00 0.03 0.01 0.01 0.03 0.04 0.01 0.01 0.00
0.00 0.00 0.00 0.00 0.00 0.00 0.00 0.00 0.00 0.00 0.00 0.00 0.00 0.09 0.45 0.56 0.11 0.14 0.21 0.08 0.12 0.05 0.02 0.04 0.18 0.30 0.12 0.09 0.11 0.21 0.16 0.26 0.10 0.03 0.01 0.00 0.01 0.00 0.01 0.02 0.13 0.06 0.05 0.02
0.00 0.00 0.00 0.00 0.00 0.00 0.00 0.00 0.00 0.00 0.00 0.00 0.00 0.02 0.56 0.11 0.04 0.14 0.22 0.11 0.06 0.02 0.04 0.06 0.15 0.36 0.20 0.22 0.07 0.15 0.20 0.23 0.29 0.22 0.15 0.14 0.08 0.03 0.05 0.05 0.10 0.03 0.01 0.03
0.00 0.00 0.00 0.00 0.00 0.00 0.00 0.00 0.00 0.00 0.00 0.00 0.02 0.02 0.17 0.06 0.14 0.13 0.08 0.10 0.13 0.09 0.13 0.14 0.16 0.17 0.36 0.70 0.16 0.03 0.09 0.12 0.26 0.29 0.17 0.10 0.07 0.14 0.11 0.19 0.07 0.02 0.01 0.07
0.00 0.00 0.00 0.00 0.00 0.00 0.00 0.00 0.00 0.01 0.01 0.01 0.12 0.08 0.13 0.16 0.16 0.08 0.13 0.22 0.23 0.21 0.20 0.20 0.22 0.24 0.18 0.09 0.10 0.18 0.31 0.28 0.16 0.17 0.14 0.06 0.03 0.05 0.06 0.08 0.05 0.01 0.00 0.01
0.00 0.00 0.00 0.00 0.00 0.00 0.00 0.00 0.00 0.00 0.01 0.05 0.16 0.27 0.15 0.24 0.14 0.03 0.06 0.05 0.04 0.05 0.06 0.08 0.12 0.15 0.13 0.27 0.31 0.34 0.50 0.26 0.10 0.06 0.09 0.09 0.08 0.10 0.16 0.18 0.25 0.13 0.04 0.05
0.00 0.00 0.00 0.00 0.00 0.00 0.00 0.00 0.00 0.02 0.01 0.04 0.05 0.14 0.30 0.32 0.21 0.05 0.08 0.00 0.00 0.00 0.00 0.00 0.00 0.02 0.05 0.07 0.11 0.19 0.20 0.16 0.07 0.07 0.10 0.12 0.15 0.17 0.11 0.21 0.24 0.27 0.12 0.09
0.00 0.00 0.01 0.01 0.00 0.01 0.01 0.00 0.01 0.00 0.01 0.06 0.05 0.30 0.94 0.80 0.09 0.06 0.08 0.02 0.00 0.00 0.00 0.00 0.00 0.00 0.00 0.00 0.01 0.03 0.06 0.04 0.08 0.12 0.14 0.12 0.14 0.20 0.23 0.20 0.18 0.17 0.28 0.31
0.00 0.00 0.00 0.00 0.00 0.00 0.00 0.00 0.02 0.02 0.12 0.05 0.01 0.08 0.08 0.07 0.01 0.03 0.04 0.00 0.00 0.00 0.00 0.00 0.00 0.00 0.00 0.00 0.00 0.00 0.00 0.01 0.04 0.08 0.10 0.17 0.14 0.21 0.28 0.47 0.37 0.41 0.48 0.36
0.00 0.00 0.00 0.00 0.00 0.01 0.01 0.02 0.02 0.00 0.01 0.01 0.05 0.34 0.19 0.05 0.01 0.01 0.00 0.00 0.00 0.00 0.00 0.00 0.00 0.00 0.00 0.00 0.00 0.00 0.00 0.00 0.06 0.06 0.12 0.12 0.16 0.10 0.20 0.25 0.20 0.27 0.38 0.36
0.00 0.00 0.00 0.04 0.06 0.06 0.06 0.01 0.02 0.02 0.08 0.22 0.17 0.06 0.03 0.00 0.00 0.01 0.00 0.00 0.00 0.00 0.00 0.00 0.00 0.00 0.00 0.00 0.00 0.00 0.00 0.00 0.01 0.00 0.00 0.03 0.04 0.05 0.06 0.07 0.09 0.14 0.13 0.17
0.00 0.00 0.00 0.05 0.11 0.03 0.02 0.04 0.06 0.08 0.04 0.02 0.02 0.01 0.01 0.02 0.02 0.00 0.00 0.00 0.00 0.00 0.00 0.00 0.00 0.00 0.00 0.00 0.00 0.00 0.00 0.00 0.00 0.00 0.00 0.00 0.00 0.01 0.03 0.03 0.03 0.04 0.03 0.03
0.00 0.00 0.00 0.00 0.02 0.11 0.03 0.00 0.00 0.00 0.01 0.01 0.00 0.04 0.11 0.08 0.04 0.00 0.00 0.00 0.00 0.00 0.00 0.00 0.00 0.00 0.00 0.00 0.00 0.00 0.00 0.00 0.00 0.00 0.00 0.01 0.01 0.01 0.02 0.03 0.03 0.02 0.02 0.01
0.00 0.00 0.00 0.00 0.03 0.10 0.11 0.04 0.03 0.02 0.01 0.02 0.01 0.00 0.01 0.01 0.02 0.00 0.00 0.00 0.00 0.00 0.00 0.00 0.00 0.00 0.00 0.00 0.00 0.00 0.00 0.00 0.00 0.00 0.00 0.01 0.03 0.03 0.04 0.04 0.04 0.03 0.03 0.03
0.03 0.01 0.00 0.00 0.00 0.06 0.07 0.01 0.00 0.01 0.02 0.00 0.00 0.00 0.00 0.00 0.00 0.00 0.00 0.00 0.00 0.00 0.00 0.00 0.00 0.00 0.00 0.00 0.00 0.00 0.00 0.00 0.00 0.00 0.01 0.01 0.02 0.03 0.04 0.04 0.04 0.03 0.04 0.03
0.00 0.00 0.00 0.00 0.00 0.00 0.00 0.00 0.00 0.01 0.02 0.00 0.00 0.00 0.00 0.00 0.00 0.00 0.00 0.00 0.00 0.00 0.00 0.00 0.00 0.00 0.00 0.00 0.00 0.00 0.00 0.00 0.00 0.01 0.01 0.02 0.02 0.02 0.03 0.04 0.03 0.04 0.05 0.03
0.00 0.00 0.00 0.00 0.00 0.00 0.00 0.00 0.00 0.00 0.00 0.00 0.00 0.00 0.00 0.00 0.00 0.00 0.00 0.00 0.00 0.00 0.00 0.00 0.00 0.00 0.00 0.00 0.00 0.00 0.00 0.00 0.01 0.01 0.01 0.01 0.01 0.01 0.01 0.04 0.03 0.03 0.05 0.03
0.00 0.00 0.00 0.00 0.00 0.00 0.00 0.00 0.00 0.00 0.00 0.00 0.00 0.00 0.00 0.00 0.00 0.00 0.00 0.00 0.00 0.00 0.00 0.00 0.00 0.00 0.00 0.00 0.00 0.00 0.00 0.01 0.01 0.00 0.00 0.00 0.00 0.00 0.01 0.02 0.03 0.03 0.03 0.03
0.00 0.00 0.00 0.00 0.00 0.00 0.00 0.00 0.00 0.00 0.00 0.00 0.00 0.00 0.00 0.00 0.00 0.00 0.00 0.00 0.00 0.00 0.00 0.00 0.00 0.00 0.00 0.00 0.00 0.00 0.00 0.00 0.00 0.01 0.01 0.01 0.01 0.01 0.01 0.03 0.04 0.03 0.03 0.04
0.00 0.00 0.00 0.00 0.00 0.00 0.00 0.00 0.00 0.00 0.00 0.00 0.00 0.00 0.00 0.00 0.00 0.00 0.00 0.00 0.00 0.00 0.00 0.00 0.00 0.00 0.00 0.00 0.00 0.00 0.00 0.00 0.00 0.00 0.00 0.01 0.01 0.00 0.01 0.02 0.03 0.03 0.02 0.03
0.00 0.00 0.00 0.00 0.00 0.00 0.00 0.00 0.00 0.00 0.00 0.00 0.00 0.00 0.00 0.00 0.00 0.00 0.00 0.00 0.00 0.00 0.00 0.00 0.00 0.00 0.00 0.00 0.00 0.00 0.00 0.00 0.00 0.00 0.00 0.00 0.00 0.01 0.01 0.02 0.03 0.03 0.01 0.02
0.00 0.00 0.00 0.00 0.00 0.00 0.00 0.00 0.00 0.00 0.00 0.00 0.00 0.00 0.00 0.00 0.00 0.00 0.00 0.00 0.00 0.00 0.00 0.00 0.00 0.00 0.00 0.00 0.00 0.00 0.00 0.00 0.00 0.00 0.00 0.00 0.01 0.01 0.03 0.07 0.08 0.06 0.03 0.07
0.00 0.00 0.00 0.00 0.00 0.00 0.00 0.00 0.00 0.00 0.00 0.00 0.00 0.00 0.00 0.00 0.00 0.00 0.00 0.00 0.00 0.00 0.00 0.00 0.00 0.00 0.00 0.00 0.00 0.00 0.00 0.00 0.00 0.00 0.00 0.01 0.02 0.04 0.07 0.11 0.08 0.08 0.07 0.08